カタリナ彗星

C/2017 S6 ( Catalina )

English version
Home page
Updated on November 7, 2017

---------------------------------------------------------------------

・ プロフィール

発見日 2017年9月30日
発見光度 17.9等
発見者 G. J. Leonard (Catalina Sky Survey)

・ 写真集

・ 軌道要素

T 2018 Feb. 27.00005 TT                                 MPCW
q   1.5421250            (2000.0)            P               Q
                   Peri.  134.75331     +0.93849676     -0.00872967
                   Node   130.88589     -0.23790169     -0.74088255
e   1.0            Incl.  152.83366     +0.25025310     -0.67157787
From 59 observations 2017 Sept. 30-Oct. 7.

・ 星図

・ 光度変化

        m1 = 12.5 + 5 logΔ + 10.0 log r

---------------------------------------------------------------------

軌道要素はM.P.E.C. 2017-T37に掲載されたものです。
星図はステラナビゲータ Ver.10 (アストロアーツ) で作成したものです。
光度グラフはComet for Windowsで作成したものです。

---------------------------------------------------------------------

Copyright(C) Seiichi Yoshida (comet@aerith.net). All rights reserved.